[[{"header":{"parameterUnit":"m.s-1","parameterCategory":1,"la1":30.2991,"la2":30.254,"lo1":-89.0895,"lo2":-89.0444,"dy":0.0017,"dx":0.0017,"nx":28,"ny":28,"refTime":"2026-02-16T09:00:00:Z","depth":0,"parameterNumber":2,"parameterNumberName":"U-component_of_WINDS"},"data":[0,0,0,0,0,0,0,0,0,0,0,0,0,0,0,0,0,0,0,0,0,0,0,0,0,0,0,0,0,0,0,0,0,0,0,0,0,0,0,0,0,0,0,0,0,0,0,0,0,0,0,0,0,0,0,0,0,0,-1.3413,-1.3413,0,-1.3483,-1.3484,-1.3484,-1.3493,-1.3492,-1.3491,-1.3491,-1.3565,-1.3567,-1.357,0,0,0,0,0,0,0,0,0,0,0,0,0,-1.329,-1.3293,-1.3413,-1.3413,-1.3414,-1.3483,-1.3484,-1.3485,-1.3493,-1.3492,-1.3491,-1.349,-1.3564,-1.3567,-1.357,0,0,0,0,0,0,0,0,0,0,0,0,0,-1.335,-1.3293,-1.3412,-1.3427,-1.3429,-1.3482,-1.3484,-1.3485,-1.3493,-1.3492,-1.3491,-1.349,-1.3563,-1.3567,-1.3571,-1.3616,0,0,-1.3583,-1.3584,0,0,0,0,0,0,0,0,-1.3347,-1.3355,-1.3424,-1.3426,-1.3428,-1.3478,-1.3468,-1.3529,-1.3493,-1.3469,-1.3491,-1.3489,-1.3537,-1.3543,-1.3558,-1.3619,-1.3622,-1.3583,-1.3585,-1.3587,-1.3588,0,0,0,0,0,0,0,-1.3343,-1.3352,-1.344,-1.3425,-1.3427,-1.3431,-1.3438,-1.3479,-1.3508,-1.3471,-1.3471,-1.348,-1.3538,-1.3555,-1.356,-1.3623,-1.3583,-1.3586,-1.3589,-1.359,-1.373,-1.3731,0,0,0,0,0,0,-1.3336,-1.3348,-1.3438,-1.3443,-1.3384,-1.3434,-1.3442,-1.3463,-1.3507,-1.3513,-1.348,-1.348,-1.3548,-1.3556,-1.3563,-1.3622,-1.3587,-1.3591,-1.3593,-1.3728,-1.373,-1.3731,0,0,0,0,0,0,-1.3333,-1.3343,-1.3435,-1.3396,-1.3408,-1.3437,-1.346,-1.3465,-1.3482,-1.3515,-1.352,-1.3492,-1.3548,-1.3557,-1.3603,-1.3624,-1.3592,-1.3596,-1.3727,-1.3729,-1.3731,-1.3738,0,0,0,0,0,0,-1.3329,-1.3342,-1.3359,-1.3396,-1.341,-1.3473,-1.3462,-1.3467,-1.3488,-1.3488,-1.3527,-1.3532,-1.3548,-1.3597,-1.3607,-1.3629,-1.3599,-1.3725,-1.3728,-1.373,-1.3736,-1.374,-1.3744,0,0,0,0,0,-1.3325,-1.3357,-1.3359,-1.337,-1.343,-1.3474,-1.3482,-1.3499,-1.349,-1.3507,-1.3529,-1.3531,-1.362,-1.3602,-1.3613,-1.3637,-1.3724,-1.3727,-1.373,-1.3734,-1.3739,-1.3743,0,0,0,0,0,0,-1.3321,-1.3362,-1.3365,-1.341,-1.3439,-1.3476,-1.3498,-1.3503,-1.3535,-1.3533,-1.3553,-1.3562,-1.3608,-1.3627,-1.3606,-1.3685,-1.3671,-1.3677,-1.3671,-1.3676,-1.368,-1.3675,-1.3602,0,0,0,0,0,-1.3326,-1.3357,-1.3392,-1.3428,-1.3443,-1.3468,-1.3488,-1.3498,-1.3529,-1.3541,-1.3566,-1.3597,-1.3632,-1.3655,-1.3689,-1.3739,-1.3749,-1.3761,-1.3764,-1.3767,-1.3772,-1.3804,-1.3811,-1.3741,-1.3741,-1.3741,0,0,-1.3336,-1.3362,-1.338,-1.3429,-1.3452,-1.3486,-1.3478,-1.3513,-1.3539,-1.3547,-1.3592,-1.3612,-1.3648,-1.3697,-1.372,-1.3714,-1.3794,-1.3771,-1.3773,-1.3777,-1.3808,-1.3814,-1.382,-1.3743,-1.3743,-1.3743,0,0,-1.3371,-1.3393,-1.3427,-1.3452,-1.3487,-1.3505,-1.3513,-1.355,-1.3563,-1.361,-1.3617,-1.3649,-1.3708,-1.3734,-1.3756,-1.3805,-1.3809,-1.3815,-1.3835,-1.3866,-1.3871,-1.3876,-1.3897,-1.3904,-1.382,-1.382,-1.382,0,-1.3379,-1.3429,-1.3445,-1.3481,-1.3504,-1.3512,-1.3549,-1.3572,-1.3617,-1.3633,-1.3626,-1.3703,-1.3727,-1.3785,-1.3797,-1.3813,-1.3826,-1.3811,-1.3869,-1.3874,-1.3879,-1.39,-1.3907,-1.382,-1.382,-1.382,-1.382,0,-1.3438,-1.3473,-1.3497,-1.3542,-1.3567,-1.3603,-1.3626,-1.365,-1.3659,-1.3678,-1.3727,-1.3757,-1.3799,-1.3813,-1.3821,-1.3873,-1.3869,-1.3865,-1.3852,-1.3886,-1.3906,-1.3913,-1.3822,-1.3821,-1.3821,-1.3821,0,0,-1.3473,-1.3527,-1.3536,-1.3558,-1.3599,-1.3627,-1.3666,-1.3707,-1.3728,-1.376,-1.3794,-1.3846,-1.3844,-1.3868,-1.388,-1.3906,-1.3948,-1.39,-1.3901,-1.3911,-1.4011,-1.4016,-1.4024,-1.3951,-1.3952,-1.3953,-1.4009,0,-1.3515,-1.3582,-1.3599,-1.3658,-1.3692,-1.3702,-1.3736,-1.3766,-1.3786,-1.3819,-1.3841,-1.3878,-1.3871,-1.3886,-1.3913,-1.3937,-1.3969,-1.3933,-1.3986,-1.3988,-1.3979,-1.4034,-1.4037,-1.4089,-1.4017,-1.4018,-1.4019,0,-1.3573,-1.3607,-1.3668,-1.3709,-1.3724,-1.3754,-1.3795,-1.3826,-1.3862,-1.3875,-1.3903,-1.3913,-1.3956,-1.394,-1.4001,-1.3977,-1.4,-1.4015,-1.4018,-1.4025,-1.4007,-1.4045,-1.4105,-1.4114,-1.403,-1.4029,-1.4029,0,-1.3595,-1.3656,-1.3702,-1.372,-1.3767,-1.3789,-1.381,-1.3845,-1.387,-1.3906,-1.3923,-1.3964,-1.3987,-1.4019,-1.4041,-1.4027,-1.4102,-1.4087,-1.4116,-1.4116,-1.4133,-1.4132,-1.42,-1.4143,-1.4143,-1.4143,-1.4143,0,-1.3642,-1.368,-1.3714,-1.3742,-1.3786,-1.3807,-1.3851,-1.3872,-1.3904,-1.3938,-1.3949,-1.3982,-1.4008,-1.4045,-1.4062,-1.4113,-1.4122,-1.4135,-1.414,-1.4136,-1.4135,-1.4152,-1.415,-1.4145,-1.4144,-1.4144,-1.4144,0,-1.3675,-1.3698,-1.375,-1.3791,-1.3803,-1.3834,-1.387,-1.39,-1.392,-1.3964,-1.3976,-1.4008,-1.4053,-1.4078,-1.4133,-1.4145,-1.4203,-1.4204,-1.419,-1.4193,-1.4222,-1.422,-1.4306,-1.432,-1.4251,-1.4252,-1.4252,0,-1.3704,-1.3734,-1.3779,-1.3803,-1.3825,-1.3863,-1.3889,-1.3911,-1.3938,-1.3984,-1.4008,-1.4053,-1.4091,-1.4162,-1.4192,-1.4235,-1.424,-1.4267,-1.4246,-1.4243,-1.4244,-1.4243,-1.4248,-1.4271,-1.4272,-1.4272,-1.4273,0,-1.3754,-1.3765,-1.3802,-1.3844,-1.3875,-1.3909,-1.3942,-1.3962,-1.399,-1.402,-1.4066,-1.4095,-1.4153,-1.4199,-1.4246,-1.427,-1.4278,-1.4279,-1.4289,-1.4286,-1.4278,-1.4286,-1.4203,-1.4277,-1.4276,-1.4276,-1.4276,-1.4276,-1.3788,-1.3817,-1.3855,-1.3896,-1.3924,-1.3956,-1.3987,-1.4012,-1.405,-1.4099,-1.411,-1.416,-1.4199,-1.4263,-1.4288,-1.4328,-1.4324,-1.4337,-1.434,-1.4344,-1.4347,-1.427,-1.4337,-1.4336,-1.4336,-1.4336,-1.4336,0,-1.3842,-1.3867,-1.3905,-1.3953,-1.3987,-1.399,-1.4029,-1.4057,-1.41,-1.4136,-1.4173,-1.4228,-1.4273,-1.4308,-1.4355,-1.4381,-1.4386,-1.4393,-1.4393,-1.4399,-1.4347,-1.4335,-1.4389,-1.4389,-1.4389,-1.4389,-1.4388,-1.4388,-1.3874,-1.3924,-1.394,-1.4005,-1.403,-1.4079,-1.4101,-1.4132,-1.4161,-1.4222,-1.426,-1.4281,-1.4318,-1.4368,-1.4412,-1.4421,-1.4439,-1.4446,-1.4456,-1.4407,-1.4402,-1.4397,-1.4386,-1.4449,-1.4449,-1.4505,-1.4506,-1.4506]},{"header":{"parameterUnit":"m.s-1","parameterCategory":1,"la1":30.2991,"la2":30.254,"lo1":-89.0895,"lo2":-89.0444,"dy":0.0017,"dx":0.0017,"nx":28,"ny":28,"refTime":"2026-02-16T09:00:00:Z","depth":0,"parameterNumber":3,"parameterNumberName":"V-component_of_WINDS"},"data":[0,0,0,0,0,0,0,0,0,0,0,0,0,0,0,0,0,0,0,0,0,0,0,0,0,0,0,0,0,0,0,0,0,0,0,0,0,0,0,0,0,0,0,0,0,0,0,0,0,0,0,0,0,0,0,0,0,0,-0.0191,-0.0192,0,-0.028,-0.0281,-0.0282,-0.0295,-0.0294,-0.0293,-0.0292,-0.0385,-0.0388,-0.0392,0,0,0,0,0,0,0,0,0,0,0,0,0,-0.0034,-0.0037,-0.0191,-0.0192,-0.0193,-0.0279,-0.0281,-0.0282,-0.0295,-0.0294,-0.0293,-0.0292,-0.0384,-0.0388,-0.0392,0,0,0,0,0,0,0,0,0,0,0,0,0,-0.0111,-0.0038,-0.0191,-0.021,-0.0213,-0.0279,-0.0281,-0.0282,-0.0295,-0.0294,-0.0293,-0.0291,-0.0383,-0.0388,-0.0392,-0.0447,0,0,-0.0407,-0.0409,0,0,0,0,0,0,0,0,-0.0106,-0.0116,-0.0206,-0.0209,-0.0212,-0.0275,-0.026,-0.0338,-0.0295,-0.0264,-0.0292,-0.0291,-0.035,-0.0357,-0.0377,-0.0451,-0.0455,-0.0408,-0.0411,-0.0413,-0.0414,0,0,0,0,0,0,0,-0.0101,-0.0113,-0.0226,-0.0207,-0.0211,-0.0215,-0.0224,-0.0274,-0.0313,-0.0266,-0.0268,-0.0278,-0.0351,-0.0372,-0.0379,-0.0457,-0.0408,-0.0412,-0.0415,-0.0417,-0.058,-0.0582,0,0,0,0,0,0,-0.0092,-0.0108,-0.0223,-0.0229,-0.0155,-0.0218,-0.0229,-0.0256,-0.0312,-0.0319,-0.0279,-0.0278,-0.0364,-0.0373,-0.0382,-0.045,-0.0413,-0.0417,-0.042,-0.0579,-0.0581,-0.0582,0,0,0,0,0,0,-0.0089,-0.0102,-0.022,-0.0169,-0.0184,-0.0222,-0.0252,-0.0258,-0.0279,-0.0321,-0.0328,-0.0293,-0.0364,-0.0375,-0.043,-0.0453,-0.0419,-0.0424,-0.0577,-0.0579,-0.0581,-0.0585,0,0,0,0,0,0,-0.0084,-0.0101,-0.0122,-0.0169,-0.0187,-0.0266,-0.0254,-0.0261,-0.0287,-0.0287,-0.0336,-0.0343,-0.0363,-0.0423,-0.0435,-0.0459,-0.0428,-0.0575,-0.0578,-0.0581,-0.0583,-0.0587,-0.059,0,0,0,0,0,-0.0078,-0.0119,-0.0123,-0.0136,-0.0213,-0.0267,-0.0277,-0.0299,-0.0289,-0.031,-0.0337,-0.0342,-0.0448,-0.0429,-0.0442,-0.0468,-0.0574,-0.0577,-0.0581,-0.0581,-0.0586,-0.059,0,0,0,0,0,0,-0.0074,-0.0126,-0.013,-0.0188,-0.0223,-0.0269,-0.0297,-0.0303,-0.0343,-0.0341,-0.0367,-0.0378,-0.0432,-0.0456,-0.0433,-0.0524,-0.051,-0.0517,-0.0506,-0.0511,-0.0515,-0.0508,-0.0432,0,0,0,0,0,-0.008,-0.0119,-0.0162,-0.0209,-0.0226,-0.0259,-0.0283,-0.0296,-0.0334,-0.0349,-0.0381,-0.0418,-0.046,-0.0487,-0.0527,-0.0586,-0.0597,-0.0611,-0.0614,-0.0617,-0.0622,-0.0655,-0.0662,-0.0593,-0.0593,-0.0593,0,0,-0.0093,-0.0126,-0.0149,-0.0209,-0.0238,-0.0278,-0.0271,-0.0314,-0.0344,-0.0356,-0.041,-0.0434,-0.0477,-0.0534,-0.0561,-0.0556,-0.0643,-0.0621,-0.0623,-0.0627,-0.0659,-0.0666,-0.0671,-0.0595,-0.0595,-0.0594,0,0,-0.0136,-0.0165,-0.0207,-0.0235,-0.0279,-0.03,-0.031,-0.0356,-0.0372,-0.0426,-0.0436,-0.0472,-0.0544,-0.0574,-0.0599,-0.0653,-0.0659,-0.0665,-0.0685,-0.0716,-0.0722,-0.0727,-0.0746,-0.0753,-0.067,-0.067,-0.067,0,-0.0146,-0.0207,-0.0228,-0.027,-0.0296,-0.0308,-0.0351,-0.0378,-0.0433,-0.0451,-0.0444,-0.0534,-0.0564,-0.0628,-0.0641,-0.066,-0.0673,-0.066,-0.0719,-0.0724,-0.0729,-0.0748,-0.0755,-0.0671,-0.0671,-0.0671,-0.0671,0,-0.0217,-0.0259,-0.0288,-0.0339,-0.0369,-0.0412,-0.0439,-0.0467,-0.0477,-0.0499,-0.0554,-0.0591,-0.0639,-0.0655,-0.0666,-0.0721,-0.0716,-0.0714,-0.0701,-0.0736,-0.0754,-0.0762,-0.0672,-0.0671,-0.0671,-0.0671,0,0,-0.0261,-0.0323,-0.0334,-0.0357,-0.0406,-0.0439,-0.0482,-0.0528,-0.0551,-0.0589,-0.0626,-0.0685,-0.0683,-0.0711,-0.0726,-0.0754,-0.0794,-0.0748,-0.075,-0.0756,-0.0857,-0.0859,-0.0867,-0.0798,-0.08,-0.0801,-0.0854,0,-0.031,-0.0387,-0.0407,-0.0472,-0.0511,-0.0522,-0.056,-0.0594,-0.0615,-0.0652,-0.0676,-0.0718,-0.0712,-0.0729,-0.0757,-0.0784,-0.0815,-0.078,-0.0834,-0.0835,-0.0823,-0.0877,-0.0879,-0.0927,-0.0861,-0.0862,-0.0863,0,-0.0378,-0.0416,-0.0485,-0.0528,-0.0545,-0.0578,-0.0622,-0.0657,-0.0696,-0.071,-0.0741,-0.0752,-0.0798,-0.0782,-0.0846,-0.0822,-0.0845,-0.0861,-0.0864,-0.087,-0.0852,-0.0885,-0.0943,-0.095,-0.0875,-0.0874,-0.0873,0,-0.0403,-0.0472,-0.0522,-0.0542,-0.0593,-0.0616,-0.0639,-0.0677,-0.0703,-0.0742,-0.0759,-0.0803,-0.0827,-0.0861,-0.0884,-0.087,-0.0946,-0.0932,-0.0959,-0.0958,-0.0975,-0.0974,-0.1038,-0.0989,-0.0989,-0.0989,-0.0988,0,-0.0457,-0.0498,-0.0534,-0.0565,-0.0612,-0.0634,-0.0681,-0.0704,-0.0737,-0.0773,-0.0785,-0.0819,-0.0848,-0.0885,-0.0904,-0.0954,-0.0964,-0.0977,-0.0982,-0.0976,-0.0975,-0.0992,-0.099,-0.0991,-0.099,-0.099,-0.0989,0,-0.0493,-0.0518,-0.0574,-0.0618,-0.063,-0.0663,-0.0701,-0.0731,-0.0753,-0.0798,-0.081,-0.0844,-0.0889,-0.0915,-0.0972,-0.0984,-0.104,-0.1043,-0.1027,-0.1029,-0.1054,-0.1051,-0.1132,-0.1144,-0.1087,-0.1087,-0.1088,0,-0.0526,-0.0558,-0.0605,-0.063,-0.0652,-0.0692,-0.0719,-0.0742,-0.077,-0.0816,-0.0841,-0.0886,-0.0924,-0.0995,-0.1025,-0.1069,-0.1073,-0.1098,-0.108,-0.1073,-0.1074,-0.1072,-0.1075,-0.1102,-0.1102,-0.1103,-0.1103,0,-0.058,-0.0591,-0.0629,-0.0672,-0.0703,-0.0738,-0.0772,-0.0792,-0.0821,-0.0851,-0.0897,-0.0926,-0.0983,-0.1028,-0.1074,-0.1098,-0.1106,-0.1108,-0.1117,-0.1112,-0.1101,-0.1108,-0.1036,-0.1107,-0.1106,-0.1106,-0.1106,-0.1106,-0.0616,-0.0646,-0.0683,-0.0725,-0.0753,-0.0785,-0.0816,-0.0841,-0.0879,-0.0927,-0.0939,-0.0986,-0.1024,-0.1087,-0.1112,-0.115,-0.1146,-0.1158,-0.1161,-0.1164,-0.1165,-0.1095,-0.1158,-0.1158,-0.1158,-0.1158,-0.1158,0,-0.0672,-0.0697,-0.0735,-0.0782,-0.0815,-0.0818,-0.0857,-0.0884,-0.0926,-0.096,-0.0997,-0.1049,-0.1093,-0.1126,-0.117,-0.1195,-0.1199,-0.1206,-0.1204,-0.121,-0.1166,-0.1154,-0.1201,-0.1201,-0.1201,-0.1201,-0.1201,-0.1201,-0.0705,-0.0755,-0.077,-0.0833,-0.0858,-0.0904,-0.0926,-0.0955,-0.0983,-0.1041,-0.1076,-0.1097,-0.1132,-0.1179,-0.1219,-0.1228,-0.1244,-0.125,-0.1259,-0.1218,-0.1213,-0.1209,-0.1198,-0.1253,-0.1253,-0.13,-0.13,-0.1301]}]]